This demonstration page uses our WeatherBlox Daily Observations layout. Learn more.

38.89511, -77.03637

Hourly Observations for January 18, 2018

Temp ( °F °C ) Dew Point ( °F °C ) Humidity (%) Winds ( mph kmh ) Pressure ( in mb ) Visibility ( mi km ) Precip ( " mm )
12:52 am 00:52 Mostly Cloudy 19 -7.2 6 -14.4 57 57 NNW 13 20 30.28 1025 10 16.0934 0 0
1:52 am 01:52 Mostly Clear 19 -7.2 7 -13.9 59 59 NNW 10 17 30.24 1024 10 16.0934 0 0
2:52 am 02:52 Mostly Clear 19 -7.2 7 -13.9 59 59 NNW 16 26 30.19 1022 10 16.0934 0 0
3:52 am 03:52 Clear 20 -6.7 6 -14.4 55 55 NNW 10 17 30.19 1022 10 16.0934 0 0
4:52 am 04:52 Clear 20 -6.7 6 -14.4 55 55 NW 10 17 30.18 1022 10 16.0934 0 0
5:52 am 05:52 Clear 20 -6.7 6 -14.4 55 55 WNW 9 15 30.19 1023 10 16.0934 0 0
6:52 am 06:52 Mostly Clear 20 -6.7 6 -14.4 55 55 NW 7 11 30.21 1023 10 16.0934 0 0
7:52 am 07:52 Mostly Sunny 22 -5.6 5 -15 48 48 NW 10 17 30.2 1023 10 16.0934 0 0
8:52 am 08:52 Mostly Sunny 25 -3.9 6 -14.4 44 44 WNW 10 17 30.2 1023 10 16.0934 0 0
9:52 am 09:52 Mostly Sunny 30 -1.1 6 -14.4 36 36 NNW 14 22 30.19 1023 10 16.0934 0 0
10:52 am 10:52 Sunny 34 1.1 6 -14.4 31 31 WNW 12 19 30.18 1022 10 16.0934 0 0
11:52 am 11:52 Sunny 38 3.3 6 -14.4 26 26 WNW 10 17 30.14 1021 10 16.0934 0 0
12:52 pm 12:52 Sunny 41 5 5 -15 22 22 W 10 17 30.1 1019 10 16.0934 0 0
1:52 pm 13:52 Sunny 45 7.2 5 -15 19 19 WNW 8 13 30.06 1018 10 16.0934 0 0
2:52 pm 14:52 Sunny 46 7.8 2 -16.7 16 16 W 16 26 30.04 1017 10 16.0934 0 0
3:52 pm 15:52 Sunny 47 8.3 2 -16.7 15 15 W 13 20 30.04 1017 10 16.0934 0 0
4:52 pm 16:52 Mostly Sunny 45 7.2 3 -16.1 17 17 WNW 7 11 30.04 1017 10 16.0934 0 0
5:52 pm 17:52 Clear 44 6.7 3 -16.1 18 18 WNW 5 7 30.07 1018 10 16.0934 0 0
6:52 pm 18:52 Clear 42 5.6 8 -13.3 24 24 W 3 6 30.09 1019 10 16.0934 0 0
7:52 pm 19:52 Clear 35 1.7 15 -9.4 44 44 Calm 30.1 1019 10 16.0934 0 0
8:52 pm 20:52 Clear 41 5 4 -15.6 21 21 SW 3 6 30.11 1020 10 16.0934 0 0
9:52 pm 21:52 Clear 40 4.4 3 -16.1 21 21 NNW 6 9 30.13 1020 10 16.0934 0 0
10:52 pm 22:52 Clear 38 3.3 6 -14.4 26 26 Calm 30.14 1021 10 16.0934 0 0
11:52 pm 23:52 Clear 30 -1.1 23 -5 75 75 S 9 15 30.13 1020 10 16.0934 0 0

Powered by AerisWeather